Home   Weather   Knoxville   Past weeks
Flag for USA

Past Weather in Knoxville, Tennessee, USA — Yesterday and Last 2 Weeks

Now
85 °F

More clouds than sun.


Feels Like: 85 °F
Forecast: 86 / 64 °F
Wind: 15 mph from Southwest

Location: McGhee Tyson Airport

Current Time: May 19, 2019 at 4:44:22 pm

Latest Report: May 19, 2019 at 3:53 pm


Visibility: 10 mi

Pressure: 29.91 "Hg

Humidity: 43%

Dew Point: 60 °F

Location of KnoxvilleLocation

Past Weather in Knoxville — Graph

°F

Knoxville Temperature Yesterday

Maximum temperature yesterday: 88 °F (at 3:53 pm)
Minimum temperature yesterday: 63 °F (at 6:53 am)
Average temperature yesterday: 74 °F

High & Low Weather Summary for the Past Weeks

 TemperatureHumidityPressure
High88 °F (May 18, 3:53 pm)100% (May 11, 8:37 am)30.15 "Hg (May 11, 8:37 am)
Low46 °F (May 14, 5:53 am)33% (May 6, 5:53 pm)29.67 "Hg (May 12, 5:53 pm)
Average67 °F73%29.94 "Hg
* Reported May 4 2:01 pm — May 19 2:53 pm, Knoxville. Weather by CustomWeather, © 2019

Note: Actual official high and low records may vary slightly from our data, if they occured in-between our weather recording intervals... More about our weather records

Advertising

Knoxville Weather History for the Previous 24 Hours

Scroll right to see more
 ConditionsComfort  
Time TempWeatherWind HumidityBarometerVisibility
2:53 pm
Sun, May 19
85 °FMostly cloudy.15 mph45%29.94 "Hg10 mi
1:53 pm85 °FHigh level clouds.26 mph43%29.94 "Hg10 mi
12:53 pm84 °FHigh level clouds.18 mph48%29.94 "Hg10 mi
11:53 am81 °FMostly cloudy.13 mph58%29.96 "Hg10 mi
10:53 am80 °FHigh level clouds.9 mph62%29.97 "Hg10 mi
9:53 am75 °FPassing clouds.No wind71%29.97 "Hg10 mi
8:53 am70 °FPassing clouds.No wind84%29.98 "Hg10 mi
7:53 am65 °FPassing clouds.6 mph94%29.98 "Hg9 mi
6:53 am62 °FFog.3 mph96%29.97 "Hg4 mi
5:53 am64 °FClear.3 mph94%29.95 "Hg10 mi
4:53 am64 °FClear.No wind94%29.96 "Hg7 mi
3:53 am65 °FClear.No wind94%29.95 "Hg10 mi
2:53 am65 °FClear.3 mph94%29.95 "Hg10 mi
1:53 am66 °FPassing clouds.3 mph90%29.95 "Hg10 mi
12:53 am66 °FPassing clouds.5 mph93%29.96 "Hg10 mi
11:53 pm
Sat, May 18
67 °FPassing clouds.3 mph93%29.96 "Hg10 mi
10:53 pm67 °FPassing clouds.5 mph93%29.96 "Hg9 mi
9:53 pm68 °FPartly cloudy.5 mph93%29.95 "Hg10 mi
8:53 pm69 °FPartly cloudy.No wind90%29.95 "Hg10 mi
7:53 pm71 °FBroken clouds.3 mph84%29.94 "Hg7 mi
7:07 pm71 °FBroken clouds.10 mph84%29.95 "Hg7 mi
6:53 pm72 °FThundershowers. Broken clouds.No wind81%29.93 "Hg7 mi
6:36 pm71 °FThundershowers. Broken clouds.No wind76%29.96 "Hg6 mi
6:23 pm66 °FThunderstorms. Mostly cloudy.14 mph87%29.97 "Hg2 mi
5:53 pm87 °FThunderstorms. Scattered clouds.8 mph43%29.90 "Hg10 mi
5:37 pm87 °FThunderstorms. Scattered clouds.9 mph43%29.93 "Hg10 mi
5:18 pm87 °FThundershowers. Scattered clouds.10 mph45%29.93 "Hg10 mi
Weather by CustomWeather, © 2019

See weather overview